WB4FAY-4 Weather Reports


Display with metric or nautical units.
time (UTC)temp
F
wind
direction
speed
MPH
gust
MPH
rain 1hr
in
rain 24hr
in
rain mn
in
humidity
%
barometer
mb
20260905180517 96 85 1.0 9.0 0.00 0.00 0.00 44 1014.2
20260905180017 96 326 3.0 4.0 0.00 0.00 0.00 45 1014.2
20260905175517 96 360 2.0 7.0 0.00 0.00 0.00 44 1014.3
20260905175017 96 42 0.0 11.0 0.00 0.00 0.00 42 1014.3
20260905174517 96 90 5.0 6.0 0.00 0.00 0.00 44 1014.5
20260905174017 95 69 1.0 5.0 0.00 0.00 0.00 44 1014.5
20260905173517 95 99 5.0 4.0 0.00 0.00 0.00 44 1014.5
20260905173018 96 62 0.0 5.0 0.00 0.00 0.00 44 1014.5
20260905172517 96 0 0.0 0.0 0.00 0.00 0.00 44 1014.6
20260905172017 96 116 0.0 4.0 0.00 0.00 0.00 44 1014.6
20260905171517 95 62 0.0 5.0 0.00 0.00 0.00 45 1014.7
20260905171017 96 17 0.0 9.0 0.00 0.00 0.00 46 1014.7
20260905170517 95 65 0.0 8.0 0.00 0.00 0.00 46 1014.9
20260905170017 95 76 3.0 8.0 0.00 0.00 0.00 45 1014.9
20260905165517 95 13 0.0 7.0 0.00 0.00 0.00 46 1014.9
20260905165017 95 356 2.0 4.0 0.00 0.00 0.00 46 1014.9
20260905164517 95 32 0.0 3.0 0.00 0.00 0.00 49 1015.0
20260905164017 94 13 2.0 6.0 0.00 0.00 0.00 47 1015.1
20260905163518 94 92 3.0 8.0 0.00 0.00 0.00 48 1015.2
20260905163017 94 79 3.0 9.0 0.00 0.00 0.00 48 1015.2
20260905162517 94 93 4.0 6.0 0.00 0.00 0.00 48 1015.2
20260905162017 93 99 5.0 7.0 0.00 0.00 0.00 49 1015.2
20260905161517 93 102 0.0 8.0 0.00 0.00 0.00 50 1015.3
20260905161017 92 343 0.0 6.0 0.00 0.00 0.00 52 1015.3
20260905160517 92 332 2.0 6.0 0.00 0.00 0.00 52 1015.3
20260905160018 92 360 0.0 7.0 0.00 0.00 0.00 53 1015.3
20260905155517 92 14 0.0 3.0 0.00 0.00 0.00 54 1015.2
20260905155017 92 360 0.0 6.0 0.00 0.00 0.00 52 1015.3
20260905154517 92 82 3.0 8.0 0.00 0.00 0.00 53 1015.3
20260905154017 92 107 0.0 7.0 0.00 0.00 0.00 54 1015.2
20260905153517 92 61 1.0 5.0 0.00 0.00 0.00 53 1015.2
20260905153018 91 10 1.0 7.0 0.00 0.00 0.00 54 1015.2
20260905152517 91 99 2.0 5.0 0.00 0.00 0.00 55 1015.3
20260905152017 91 313 1.0 8.0 0.00 0.00 0.00 54 1015.3
20260905151522 90 315 0.0 1.0 0.00 0.00 0.00 57 1015.3
20260905151017 90 42 1.0 5.0 0.00 0.00 0.00 57 1015.2
20260905150517 90 64 1.0 5.0 0.00 0.00 0.00 57 1015.3
20260905150017 90 90 3.0 7.0 0.00 0.00 0.00 58 1015.3
20260905145517 89 85 6.0 6.0 0.00 0.00 0.00 59 1015.3
20260905145017 89 89 1.0 9.0 0.00 0.00 0.00 60 1015.3
20260905144517 88 27 7.0 6.0 0.00 0.00 0.00 62 1015.3
20260905144018 88 80 2.0 6.0 0.00 0.00 0.00 63 1015.4
20260905143517 87 117 0.0 6.0 0.00 0.00 0.00 63 1015.4
20260905143017 87 20 2.0 6.0 0.00 0.00 0.00 65 1015.5
20260905142518 86 102 0.0 5.0 0.00 0.00 0.00 67 1015.5
20260905142017 86 92 3.0 8.0 0.00 0.00 0.00 68 1015.5
20260905141517 85 333 3.0 3.0 0.00 0.00 0.00 71 1015.5
20260905141017 84 261 1.0 2.0 0.00 0.00 0.00 73 1015.4
20260905140517 84 219 0.0 2.0 0.00 0.00 0.00 75 1015.4
20260905140017 83 217 0.0 2.0 0.00 0.00 0.00 77 1015.5
20260905135517 83 126 1.0 2.0 0.00 0.00 0.00 78 1015.5
20260905135017 82 112 1.0 4.0 0.00 0.00 0.00 80 1015.6
20260905134518 81 123 1.0 3.0 0.00 0.00 0.00 82 1015.6
20260905134017 81 116 0.0 2.0 0.00 0.00 0.00 83 1015.6
20260905133517 80 0 0.0 0.0 0.00 0.00 0.00 85 1015.6
20260905133017 80 0 0.0 0.0 0.00 0.00 0.00 86 1015.5
20260905132517 79 0 0.0 0.0 0.00 0.00 0.00 87 1015.5
20260905132017 79 0 0.0 0.0 0.00 0.00 0.00 88 1015.5
20260905131518 79 0 0.0 0.0 0.00 0.00 0.00 88 1015.6
20260905131017 78 0 0.0 0.0 0.00 0.00 0.00 89 1015.7
20260905130517 78 0 0.0 0.0 0.00 0.00 0.00 90 1015.8
20260905130017 78 0 0.0 0.0 0.00 0.00 0.00 90 1015.8
20260905125517 77 0 0.0 0.0 0.00 0.00 0.00 91 1015.7
20260905125017 77 0 0.0 0.0 0.00 0.00 0.00 91 1015.8
20260905124517 77 0 0.0 0.0 0.00 0.00 0.00 91 1015.8
20260905124017 77 0 0.0 0.0 0.00 0.00 0.00 91 1015.7
20260905123517 76 0 0.0 0.0 0.00 0.00 0.00 91 1015.8
20260905123017 76 0 0.0 0.0 0.00 0.00 0.00 91 1015.8
20260905122517 76 0 0.0 0.0 0.00 0.00 0.00 91 1015.7
20260905122017 76 0 0.0 0.0 0.00 0.00 0.00 92 1015.6
20260905121517 76 0 0.0 0.0 0.00 0.00 0.00 92 1015.6
20260905121017 76 0 0.0 0.0 0.00 0.00 0.00 92 1015.5
20260905120517 76 0 0.0 0.0 0.00 0.00 0.00 91 1015.5
20260905120017 76 0 0.0 0.0 0.00 0.00 0.00 92 1015.6
20260905115517 76 0 0.0 0.0 0.00 0.00 0.00 92 1015.5
20260905115017 76 0 0.0 0.0 0.00 0.00 0.00 91 1015.5
20260905114518 75 0 0.0 0.0 0.00 0.00 0.00 91 1015.4
20260905114017 75 0 0.0 0.0 0.00 0.00 0.00 91 1015.4
20260905113517 75 0 0.0 0.0 0.00 0.00 0.00 91 1015.4
20260905113018 76 0 0.0 0.0 0.00 0.00 0.00 91 1015.3
20260905112517 75 0 0.0 0.0 0.00 0.00 0.00 91 1015.3
20260905112017 76 0 0.0 0.0 0.00 0.00 0.00 91 1015.3
20260905111517 76 0 0.0 0.0 0.00 0.00 0.00 91 1015.3
20260905111017 76 0 0.0 0.0 0.00 0.00 0.00 91 1015.2
20260905110517 76 0 0.0 0.0 0.00 0.00 0.00 91 1015.2
20260905110017 76 0 0.0 0.0 0.00 0.00 0.00 91 1015.2
20260905105517 76 0 0.0 0.0 0.00 0.00 0.00 90 1015.3
20260905105018 76 0 0.0 0.0 0.00 0.00 0.00 90 1015.2
20260905104517 76 0 0.0 0.0 0.00 0.00 0.00 90 1015.2
20260905104017 76 0 0.0 0.0 0.00 0.00 0.00 90 1015.2
20260905103517 76 0 0.0 0.0 0.00 0.00 0.00 90 1015.1
20260905103017 76 0 0.0 0.0 0.00 0.00 0.00 90 1015.1
20260905102517 76 0 0.0 0.0 0.00 0.00 0.00 89 1015.1
20260905102017 76 0 0.0 0.0 0.00 0.00 0.00 89 1015.1
20260905101517 76 0 0.0 0.0 0.00 0.00 0.00 89 1015.1
20260905101017 76 0 0.0 0.0 0.00 0.00 0.00 89 1015.2
20260905100517 76 0 0.0 0.0 0.00 0.00 0.00 89 1015.2
20260905100017 76 0 0.0 0.0 0.00 0.00 0.00 89 1015.1
20260905095517 76 0 0.0 0.0 0.00 0.00 0.00 88 1015.1
20260905095017 76 0 0.0 0.0 0.00 0.00 0.00 88 1015.0
20260905094517 77 0 0.0 0.0 0.00 0.00 0.00 89 1014.9
20260905094017 76 0 0.0 0.0 0.00 0.00 0.00 88 1014.9
20260905093518 77 0 0.0 0.0 0.00 0.00 0.00 88 1014.9
20260905093017 77 0 0.0 0.0 0.00 0.00 0.00 88 1015.0
20260905092517 77 0 0.0 0.0 0.00 0.00 0.00 88 1015.0
20260905092017 77 0 0.0 0.0 0.00 0.00 0.00 88 1015.0
20260905091517 77 0 0.0 0.0 0.00 0.00 0.00 88 1015.0
20260905091018 77 0 0.0 0.0 0.00 0.00 0.00 88 1014.9
20260905090517 77 0 0.0 0.0 0.00 0.00 0.00 87 1015.0
20260905090017 77 0 0.0 0.0 0.00 0.00 0.00 87 1015.0
20260905085517 77 0 0.0 0.0 0.00 0.00 0.00 87 1015.0
20260905085017 77 0 0.0 0.0 0.00 0.00 0.00 87 1014.9
20260905084517 77 0 0.0 0.0 0.00 0.00 0.00 87 1014.8
20260905084017 77 0 0.0 0.0 0.00 0.00 0.00 87 1014.8
20260905083517 77 0 0.0 0.0 0.00 0.00 0.00 87 1014.8
20260905083017 77 0 0.0 0.0 0.00 0.00 0.00 87 1014.8
20260905082517 77 0 0.0 0.0 0.00 0.00 0.00 87 1014.8
20260905082017 77 0 0.0 0.0 0.00 0.00 0.00 87 1014.8
20260905081517 77 0 0.0 0.0 0.00 0.00 0.00 87 1014.7
20260905081018 77 0 0.0 0.0 0.00 0.00 0.00 87 1014.7
20260905080517 77 0 0.0 0.0 0.00 0.00 0.00 87 1014.7
20260905080017 77 0 0.0 0.0 0.00 0.00 0.00 86 1014.6
20260905075517 77 0 0.0 0.0 0.00 0.00 0.00 86 1014.6
20260905075017 77 0 0.0 0.0 0.00 0.00 0.00 86 1014.6
20260905074517 77 0 0.0 0.0 0.00 0.00 0.00 86 1014.6
20260905074017 77 0 0.0 0.0 0.00 0.00 0.00 86 1014.6
20260905073517 77 0 0.0 0.0 0.00 0.00 0.00 86 1014.6
20260905073017 77 0 0.0 0.0 0.00 0.00 0.00 86 1014.5
20260905072517 77 0 0.0 0.0 0.00 0.00 0.00 86 1014.5
20260905072018 78 0 0.0 0.0 0.00 0.00 0.00 86 1014.5
20260905071517 78 0 0.0 0.0 0.00 0.00 0.00 85 1014.5
20260905071017 78 0 0.0 0.0 0.00 0.00 0.00 85 1014.5
20260905070517 78 0 0.0 0.0 0.00 0.00 0.00 85 1014.4
20260905070018 78 0 0.0 0.0 0.00 0.00 0.00 85 1014.4
20260905065517 78 0 0.0 0.0 0.00 0.00 0.00 84 1014.5
20260905065017 78 0 0.0 0.0 0.00 0.00 0.00 84 1014.4
20260905064517 79 0 0.0 0.0 0.00 0.00 0.00 84 1014.5
20260905064017 78 0 0.0 0.0 0.00 0.00 0.00 84 1014.6
20260905063517 79 0 0.0 0.0 0.00 0.00 0.00 83 1014.7
20260905063017 79 0 0.0 0.0 0.00 0.00 0.00 83 1014.7
20260905062517 79 0 0.0 0.0 0.00 0.00 0.00 83 1014.7
20260905062017 79 0 0.0 0.0 0.00 0.00 0.00 83 1014.7
20260905061517 79 0 0.0 0.0 0.00 0.00 0.00 82 1014.7
20260905061017 79 0 0.0 0.0 0.00 0.00 0.00 82 1014.7
20260905060517 79 0 0.0 0.0 0.00 0.00 0.00 82 1014.8
20260905060017 79 0 0.0 0.0 0.00 0.00 0.00 82 1014.8
20260905055517 79 0 0.0 0.0 0.00 0.00 0.00 81 1014.8
20260905055017 79 0 0.0 0.0 0.00 0.00 0.00 81 1014.8
20260905054517 80 0 0.0 0.0 0.00 0.00 0.00 81 1014.8
20260905054017 80 0 0.0 0.0 0.00 0.00 0.00 81 1014.8
20260905053517 80 0 0.0 0.0 0.00 0.00 0.00 81 1014.7
20260905053017 80 0 0.0 0.0 0.00 0.00 0.00 81 1014.7
20260905052517 80 0 0.0 0.0 0.00 0.00 0.00 80 1014.7
20260905052017 80 0 0.0 0.0 0.00 0.00 0.00 80 1014.8
20260905051517 80 0 0.0 0.0 0.00 0.00 0.00 80 1014.8
20260905051017 80 0 0.0 0.0 0.00 0.00 0.00 80 1014.9
20260905050517 80 0 0.0 0.0 0.00 0.00 0.00 80 1014.9
20260905050017 80 0 0.0 0.0 0.00 0.00 0.00 80 1015.0
20260905045517 80 0 0.0 0.0 0.00 0.00 0.00 79 1014.9
20260905045018 81 0 0.0 0.0 0.00 0.00 0.00 79 1014.9
20260905044517 80 0 0.0 0.0 0.00 0.00 0.00 78 1014.9
20260905044017 80 0 0.0 0.0 0.00 0.00 0.00 78 1014.9
20260905043517 81 0 0.0 0.0 0.00 0.00 0.00 78 1014.9
20260905043017 81 0 0.0 0.0 0.00 0.00 0.00 77 1014.9
20260905042517 81 0 0.0 0.0 0.00 0.00 0.00 76 1014.9
20260905042017 81 0 0.0 0.0 0.00 0.00 0.00 76 1015.0
20260905041517 81 0 0.0 0.0 0.00 0.00 0.00 76 1015.0
20260905041017 81 0 0.0 0.0 0.00 0.00 0.00 76 1015.0
20260905040517 81 0 0.0 0.0 0.00 0.00 0.00 75 1015.0
20260905040017 82 0 0.0 0.0 0.00 0.00 0.00 75 1015.1
20260905035517 82 0 0.0 0.0 0.00 0.00 0.00 75 1015.1
20260905035017 82 0 0.0 0.0 0.00 0.00 0.00 74 1015.0
20260905034517 82 0 0.0 0.0 0.00 0.00 0.00 74 1015.1
20260905034017 82 0 0.0 0.0 0.00 0.00 0.00 73 1015.1
20260905033517 83 0 0.0 0.0 0.00 0.00 0.00 73 1015.2
20260905033017 83 0 0.0 0.0 0.00 0.00 0.00 73 1015.2
20260905032518 83 0 0.0 0.0 0.00 0.00 0.00 72 1015.2
20260905032017 83 0 0.0 0.0 0.00 0.00 0.00 72 1015.2
20260905031517 83 0 0.0 0.0 0.00 0.00 0.00 72 1015.2
20260905031017 83 0 0.0 0.0 0.00 0.00 0.00 71 1015.3
20260905030517 84 0 0.0 0.0 0.00 0.00 0.00 71 1015.3
20260905030016 84 0 0.0 0.0 0.00 0.00 0.00 71 1015.3
20260905025516 84 0 0.0 0.0 0.00 0.00 0.00 71 1015.5
20260905025017 84 0 0.0 0.0 0.00 0.00 0.00 70 1015.6
20260905024517 84 0 0.0 0.0 0.00 0.00 0.00 70 1015.6
20260905024017 84 0 0.0 0.0 0.00 0.00 0.00 70 1015.7
20260905023517 84 0 0.0 0.0 0.00 0.00 0.00 69 1015.7
20260905023017 84 0 0.0 0.0 0.00 0.00 0.00 69 1015.6
20260905022518 84 0 0.0 0.0 0.00 0.00 0.00 69 1015.6
20260905022017 85 0 0.0 0.0 0.00 0.00 0.00 69 1015.6
20260905021517 85 0 0.0 0.0 0.00 0.00 0.00 68 1015.6
20260905021017 85 0 0.0 0.0 0.00 0.00 0.00 68 1015.5
20260905020517 85 0 0.0 0.0 0.00 0.00 0.00 68 1015.5
20260905020017 85 0 0.0 0.0 0.00 0.00 0.00 67 1015.6
20260905015517 85 0 0.0 0.0 0.00 0.00 0.00 67 1015.5
20260905015017 85 0 0.0 0.0 0.00 0.00 0.00 67 1015.6
20260905014517 85 0 0.0 0.0 0.00 0.00 0.00 67 1015.3
20260905014017 85 0 0.0 0.0 0.00 0.00 0.00 66 1015.3
20260905013518 85 0 0.0 0.0 0.00 0.00 0.00 66 1015.3
20260905013017 85 0 0.0 0.0 0.00 0.00 0.00 66 1015.3
20260905012517 86 0 0.0 0.0 0.00 0.00 0.00 65 1015.2
20260905012019 86 0 0.0 0.0 0.00 0.00 0.00 65 1015.1
20260905011517 86 0 0.0 0.0 0.00 0.00 0.00 65 1015.1
20260905011017 86 0 0.0 0.0 0.00 0.00 0.00 64 1015.1
20260905010523 86 0 0.0 0.0 0.00 0.00 0.00 63 1015.0
20260905010017 87 0 0.0 0.0 0.00 0.00 0.00 63 1015.0
20260905005517 87 0 0.0 0.0 0.00 0.00 0.00 62 1014.9
20260905005017 87 0 0.0 0.0 0.00 0.00 0.00 61 1015.0
20260905004517 87 0 0.0 0.0 0.00 0.00 0.00 61 1015.0
20260905004017 88 0 0.0 0.0 0.00 0.00 0.00 60 1015.0
20260905003517 88 0 0.0 0.0 0.00 0.00 0.00 59 1015.0
20260905003017 88 0 0.0 0.0 0.00 0.00 0.00 59 1014.9
20260905002517 89 0 0.0 0.0 0.00 0.00 0.00 58 1014.9
20260905002017 89 0 0.0 0.0 0.00 0.00 0.00 57 1014.9
20260905001517 89 0 0.0 0.0 0.00 0.00 0.00 56 1014.9
20260905001017 90 0 0.0 0.0 0.00 0.00 0.00 55 1015.0
20260905000517 90 0 0.0 0.0 0.00 0.00 0.00 54 1015.0
20260905000017 91 0 0.0 0.0 0.00 0.00 0.00 53 1015.0
20260904235517 91 0 0.0 0.0 0.00 0.00 0.00 52 1015.0
20260904235017 92 0 0.0 0.0 0.00 0.00 0.00 51 1015.0
20260904234517 93 0 0.0 0.0 0.00 0.00 0.00 50 1015.0
20260904234017 93 0 0.0 0.0 0.00 0.00 0.00 48 1015.0
20260904233517 94 0 0.0 0.0 0.00 0.00 0.00 47 1015.0
20260904233017 94 128 0.0 4.0 0.00 0.00 0.00 47 1015.0
20260904232518 94 86 0.0 6.0 0.00 0.00 0.00 46 1014.9
20260904232017 94 62 2.0 7.0 0.00 0.00 0.00 45 1014.8
20260904231517 94 97 0.0 6.0 0.00 0.00 0.00 45 1014.8
20260904231017 94 85 5.0 7.0 0.00 0.00 0.00 45 1014.7
20260904230517 94 83 0.0 6.0 0.00 0.00 0.00 45 1014.6
20260904230017 95 0 0.0 0.0 0.00 0.00 0.00 46 1014.6
20260904225517 94 80 0.0 6.0 0.00 0.00 0.00 45 1014.5
20260904225017 94 68 0.0 6.0 0.00 0.00 0.00 44 1014.5
20260904224517 95 88 3.0 4.0 0.00 0.00 0.00 44 1014.4
20260904224017 95 96 0.0 9.0 0.00 0.00 0.00 44 1014.4
20260904223517 95 59 0.0 6.0 0.00 0.00 0.00 44 1014.3
20260904223017 95 18 1.0 3.0 0.00 0.00 0.00 44 1014.3
20260904222518 95 28 0.0 4.0 0.00 0.00 0.00 43 1014.3
20260904222017 95 71 1.0 8.0 0.00 0.00 0.00 43 1014.3
20260904221517 95 89 6.0 8.0 0.00 0.00 0.00 43 1014.3
20260904221017 96 71 0.0 9.0 0.00 0.00 0.00 43 1014.3
20260904220517 96 114 0.0 6.0 0.00 0.00 0.00 42 1014.3
20260904220017 96 80 3.0 5.0 0.00 0.00 0.00 41 1014.3
20260904215517 96 76 3.0 4.0 0.00 0.00 0.00 41 1014.3
20260904215017 96 97 2.0 9.0 0.00 0.00 0.00 41 1014.2
20260904214517 96 61 0.0 6.0 0.00 0.00 0.00 41 1014.3
20260904214017 97 59 0.0 7.0 0.00 0.00 0.00 42 1014.3
20260904213517 97 99 0.0 13.0 0.00 0.00 0.00 40 1014.3
20260904213017 98 100 1.0 9.0 0.00 0.00 0.00 39 1014.3
20260904212517 98 85 2.0 9.0 0.00 0.00 0.00 39 1014.3
20260904212017 98 86 3.0 6.0 0.00 0.00 0.00 38 1014.3
20260904211516 99 27 3.0 8.0 0.00 0.00 0.00 38 1014.3
20260904211017 99 80 4.0 9.0 0.00 0.00 0.00 38 1014.3
20260904210517 99 76 2.0 7.0 0.00 0.00 0.00 39 1014.3
20260904210018 99 99 1.0 7.0 0.00 0.00 0.00 38 1014.4
20260904205517 99 80 4.0 8.0 0.00 0.00 0.00 38 1014.4
20260904205018 99 78 2.0 8.0 0.00 0.00 0.00 38 1014.4
20260904204517 99 42 0.0 4.0 0.00 0.00 0.00 38 1014.4
20260904204017 99 85 4.0 12.0 0.00 0.00 0.00 38 1014.4
20260904203517 99 85 1.0 7.0 0.00 0.00 0.00 38 1014.4
20260904203017 98 95 0.0 10.0 0.00 0.00 0.00 39 1014.6
20260904202517 98 41 6.0 11.0 0.00 0.00 0.00 39 1014.7
20260904202017 98 38 4.0 7.0 0.00 0.00 0.00 39 1014.7
20260904201517 99 82 0.0 10.0 0.00 0.00 0.00 39 1014.8
20260904201017 98 76 1.0 9.0 0.00 0.00 0.00 39 1014.9
20260904200517 98 96 4.0 8.0 0.00 0.00 0.00 40 1014.9
20260904200017 97 73 2.0 5.0 0.00 0.00 0.00 39 1015.1
20260904195517 97 169 2.0 6.0 0.00 0.00 0.00 41 1015.2
20260904195017 96 155 4.0 12.0 0.00 0.00 0.00 42 1015.2
20260904194517 96 82 3.0 8.0 0.00 0.00 0.00 43 1015.3
20260904194017 96 79 5.0 6.0 0.00 0.00 0.00 44 1015.3
20260904193517 96 54 1.0 7.0 0.00 0.00 0.00 45 1015.4
20260904193017 96 93 3.0 10.0 0.00 0.00 0.00 44 1015.6
20260904192518 96 47 4.0 7.0 0.00 0.00 0.00 42 1015.7
20260904192017 96 114 3.0 10.0 0.00 0.00 0.00 42 1015.8
20260904191518 96 90 6.0 11.0 0.00 0.00 0.00 43 1016.0
20260904191017 95 27 2.0 6.0 0.00 0.00 0.00 45 1016.0
20260904190518 95 68 0.0 9.0 0.00 0.00 0.00 45 1016.1
20260904190017 95 92 4.0 8.0 0.00 0.00 0.00 44 1016.2
20260904185517 96 73 2.0 9.0 0.00 0.00 0.00 45 1016.1
20260904185017 95 93 3.0 10.0 0.00 0.00 0.00 46 1016.3
20260904184517 95 92 3.0 8.0 0.00 0.00 0.00 45 1016.3
20260904184017 95 83 5.0 8.0 0.00 0.00 0.00 46 1016.5
20260904183517 95 73 3.0 11.0 0.00 0.00 0.00 46 1016.5
20260904183018 95 59 5.0 8.0 0.00 0.00 0.00 46 1016.5
20260904182517 95 78 1.0 11.0 0.00 0.00 0.00 46 1016.7
20260904182017 95 99 2.0 6.0 0.00 0.00 0.00 46 1016.7
20260904181517 95 102 0.0 10.0 0.00 0.00 0.00 45 1016.8
20260904181017 95 45 6.0 7.0 0.00 0.00 0.00 45 1016.9